Retour au catalogue

STARLINK-33987

ActifCommunicationsVLEO
NORAD 63873·PAYLOAD·🇺🇸 United States

Lancé May 10, 2025 depuis Vandenberg Space Force Base

Loading…

Prochains Passages (prochaines 24 heures)

TLE

FraisSource: CelesTrak SupGP

Époque: Sep 14, 2026, 21:30 UTC

1 63873C 25094K   26257.89631944 -.00005124  00000+0 -17380-3 0  2575
2 63873  69.9994 115.7867 0002853 266.0112 146.9147 15.30399347    13

Suivez STARLINK-33987 en temps réel avec AllMySat

Download on the App Store